Location: Beadle
(51.4667°N, 109.0000°W)
Time: 04:37:07
(UTC+00:00)

Altair - Pass Details

Date: 31 May 2022
Orbit: 1501 x 1682 km, 47.2° (Epoch: 30 June)

Event Time Altitude Azimuth Distance (km) Brightness Sun altitude
Rises 20:34:54 0° 192° (SSW) 4,768 10.5 56.6°
Reaches altitude 10° 20:38:47 10° 179° (S) 3,817 10.1 56.2°
Maximum altitude 20:45:51 23° 132° (SE) 2,955 9.3 55.6°
Drops below altitude 10° 20:53:05 10° 85° (E) 3,920 9.5 54.8°
Sets 20:57:06 0° 72° (ENE) 4,927 9.8 54.4°
